KD8ZLZ-13 Weather Reports


time (UTC)temp
C
wind
direction
speed
KPH
gust
KPH
rain 1hr
cm
rain 24hr
cm
rain mn
cm
humidity
%
barometer
mb
20260508231046 18 212 11.3 19.3 0.00 0.00 0.00 50 1007.8
20260508230046 18 222 8.0 14.5 0.00 0.00 0.00 48 1007.8
20260508225046 18 226 9.7 19.3 0.00 0.00 0.00 46 1008.2
20260508224045 18 207 6.4 12.9 0.00 0.00 0.00 45 1008.2
20260508223045 18 221 8.0 14.5 0.00 0.00 0.00 43 1008.2
20260508222045 17 234 8.0 16.1 0.00 0.00 0.00 41 1008.2
20260508221045 17 224 8.0 14.5 0.00 0.00 0.00 41 1008.2
20260508220046 18 216 3.2 11.3 0.00 0.00 0.00 40 1008.2
20260508215045 17 217 8.0 14.5 0.00 0.00 0.00 41 1008.5
20260508214045 17 210 6.4 16.1 0.00 0.00 0.00 41 1008.5
20260508213045 17 213 8.0 17.7 0.00 0.00 0.00 41 1008.5
20260508212045 17 220 8.0 19.3 0.00 0.00 0.00 42 1008.5
20260508211045 18 190 4.8 11.3 0.00 0.00 0.00 40 1008.8
20260508210045 18 212 6.4 14.5 0.00 0.00 0.00 41 1008.8
20260508205045 20 226 8.0 17.7 0.00 0.00 0.00 38 1008.8
20260508204045 20 194 4.8 22.5 0.00 0.00 0.00 37 1008.8
20260508203045 18 210 4.8 12.9 0.00 0.00 0.00 40 1009.2
20260508202045 18 220 4.8 11.3 0.00 0.00 0.00 40 1009.5
20260508201045 18 224 9.7 16.1 0.00 0.00 0.00 40 1009.5
20260508200045 18 208 4.8 14.5 0.00 0.00 0.00 42 1009.5
20260508195045 17 255 4.8 9.7 0.00 0.00 0.00 44 1009.8
20260508194045 17 218 6.4 16.1 0.00 0.00 0.00 43 1009.8
20260508193045 18 181 3.2 9.7 0.00 0.00 0.00 45 1010.2
20260508192045 17 217 3.2 14.5 0.00 0.00 0.00 47 1010.5
20260508191046 17 217 6.4 12.9 0.00 0.00 0.00 44 1010.5
20260508190045 17 224 4.8 9.7 0.00 0.00 0.00 44 1010.5
20260508185045 18 201 4.8 12.9 0.00 0.00 0.00 42 1010.5
20260508184045 18 190 4.8 11.3 0.00 0.00 0.00 42 1010.5
20260508183045 17 207 4.8 8.0 0.00 0.00 0.00 44 1010.9
20260508182045 17 171 3.2 12.9 0.00 0.00 0.00 43 1010.9
20260508181046 16 222 6.4 14.5 0.00 0.00 0.00 45 1011.2
20260508180045 16 260 6.4 12.9 0.00 0.00 0.00 43 1011.2
20260508175045 16 234 6.4 11.3 0.00 0.00 0.00 45 1011.5
20260508174045 16 224 8.0 16.1 0.00 0.00 0.00 45 1011.5
20260508173045 16 218 6.4 17.7 0.00 0.00 0.00 44 1011.9
20260508172045 16 207 4.8 16.1 0.00 0.00 0.00 44 1011.9
20260508171045 17 176 3.2 8.0 0.00 0.00 0.00 44 1012.2
20260508170045 15 205 6.4 14.5 0.00 0.00 0.00 45 1012.2
20260508165045 15 257 4.8 12.9 0.00 0.00 0.00 44 1012.2
20260508164045 15 224 6.4 14.5 0.00 0.00 0.00 42 1012.6
20260508163045 15 215 8.0 16.1 0.00 0.00 0.00 41 1012.6
20260508162045 16 215 3.2 9.7 0.00 0.00 0.00 42 1012.6
20260508161045 15 220 3.2 9.7 0.00 0.00 0.00 44 1012.6
20260508160045 16 186 3.2 8.0 0.00 0.00 0.00 45 1012.6
20260508155045 15 148 1.6 6.4 0.00 0.00 0.00 47 1012.6
20260508154045 14 172 1.6 6.4 0.00 0.00 0.00 46 1012.9
20260508153045 14 194 1.6 4.8 0.00 0.00 0.00 48 1012.9
20260508152045 13 208 1.6 3.2 0.00 0.00 0.00 51 1012.9
20260508151045 13 281 4.8 8.0 0.00 0.00 0.00 51 1012.9
20260508150045 13 193 1.6 4.8 0.00 0.00 0.00 51 1013.2
20260508145045 13 98 1.6 4.8 0.00 0.00 0.00 53 1013.2
20260508144045 12 201 3.2 6.4 0.00 0.00 0.00 57 1013.2
20260508143045 13 34 1.6 6.4 0.00 0.00 0.00 58 1013.2
20260508142045 12 137 1.6 3.2 0.00 0.00 0.00 59 1013.6
20260508141045 13 134 1.6 4.8 0.00 0.00 0.00 59 1013.6
20260508140045 12 162 1.6 4.8 0.00 0.00 0.00 61 1013.6
20260508135045 11 34 1.6 6.4 0.00 0.00 0.00 65 1013.6
20260508134045 11 169 0.0 3.2 0.00 0.00 0.00 66 1013.6
20260508133045 10 351 1.6 4.8 0.00 0.00 0.00 67 1013.6
20260508132045 10 236 3.2 6.4 0.00 0.00 0.00 68 1013.6
20260508131045 10 147 0.0 1.6 0.00 0.00 0.00 69 1013.6
20260508130045 10 148 1.6 3.2 0.00 0.00 0.00 71 1013.2
20260508125045 9 199 1.6 3.2 0.00 0.00 0.00 75 1013.2
20260508124045 8 216 0.0 4.8 0.00 0.00 0.00 76 1013.2
20260508123045 8 189 1.6 3.2 0.00 0.00 0.00 78 1013.2
20260508122045 7 202 1.6 3.2 0.00 0.00 0.00 80 1013.2
20260508121045 7 195 1.6 3.2 0.00 0.00 0.00 82 1013.2
20260508120045 7 184 1.6 3.2 0.00 0.00 0.00 82 1012.9
20260508115045 6 199 1.6 4.8 0.00 0.00 0.00 84 1012.9
20260508114045 5 181 0.0 1.6 0.00 0.00 0.00 89 1012.6
20260508113045 5 176 0.0 0.0 0.00 0.00 0.00 90 1012.6
20260508112045 4 171 0.0 0.0 0.00 0.00 0.00 92 1012.6
20260508111045 4 168 0.0 0.0 0.00 0.00 0.00 92 1012.6
20260508110045 4 167 0.0 0.0 0.00 0.00 0.00 91 1012.6
20260508105045 4 164 0.0 0.0 0.00 0.00 0.00 91 1012.6
20260508104045 4 145 0.0 0.0 0.00 0.00 0.00 91 1012.6
20260508103045 4 130 0.0 0.0 0.00 0.00 0.00 90 1012.6
20260508102045 5 181 0.0 1.6 0.00 0.00 0.00 90 1012.6
20260508101045 5 177 0.0 1.6 0.00 0.00 0.00 90 1012.2
20260508100045 5 190 0.0 1.6 0.00 0.00 0.00 90 1012.2
20260508095045 5 182 0.0 1.6 0.00 0.00 0.00 90 1012.2
20260508094045 5 183 0.0 1.6 0.00 0.00 0.00 89 1012.2
20260508093045 5 186 0.0 1.6 0.00 0.00 0.00 89 1012.2
20260508092045 5 176 0.0 0.0 0.00 0.00 0.00 87 1012.2
20260508091045 5 180 0.0 1.6 0.00 0.00 0.00 86 1012.2
20260508090044 5 183 0.0 1.6 0.00 0.00 0.00 84 1012.2
20260508085045 6 185 1.6 1.6 0.00 0.00 0.00 83 1012.6
20260508084045 6 193 1.6 3.2 0.00 0.00 0.00 82 1012.6
20260508083045 6 183 0.0 1.6 0.00 0.00 0.00 81 1012.6
20260508082044 6 190 1.6 3.2 0.00 0.00 0.00 80 1012.6
20260508081045 6 186 1.6 4.8 0.00 0.00 0.00 79 1012.6
20260508080044 6 187 1.6 3.2 0.00 0.00 0.00 78 1012.6
20260508075044 6 192 0.0 3.2 0.00 0.00 0.00 79 1012.9
20260508074044 6 205 3.2 4.8 0.00 0.00 0.00 78 1012.6
20260508073044 6 193 1.6 3.2 0.00 0.00 0.00 79 1012.6
20260508072044 6 200 1.6 3.2 0.00 0.00 0.00 80 1012.6
20260508071044 6 204 1.6 4.8 0.00 0.00 0.00 79 1012.9
20260508070044 6 199 1.6 3.2 0.00 0.00 0.00 79 1012.9
20260508065044 6 191 0.0 3.2 0.00 0.00 0.00 80 1012.9
20260508064044 6 193 0.0 3.2 0.00 0.00 0.00 79 1012.9
20260508063044 6 208 1.6 3.2 0.00 0.00 0.00 78 1012.6
20260508062044 6 207 1.6 3.2 0.00 0.00 0.00 76 1012.9
20260508061044 7 202 3.2 6.4 0.00 0.00 0.00 74 1012.9
20260508060044 7 189 1.6 4.8 0.00 0.00 0.00 76 1012.9
20260508055044 7 200 1.6 3.2 0.00 0.00 0.00 76 1012.9
20260508054044 7 194 1.6 3.2 0.00 0.00 0.00 74 1012.9
20260508053045 7 197 1.6 3.2 0.00 0.00 0.00 75 1012.9
20260508052044 7 192 0.0 1.6 0.00 0.00 0.00 75 1012.9
20260508051044 7 202 1.6 3.2 0.00 0.00 0.00 73 1012.9
20260508050044 7 196 1.6 3.2 0.00 0.00 0.00 73 1012.9
20260508045044 8 203 3.2 6.4 0.00 0.00 0.00 69 1012.9
20260508044044 8 195 3.2 6.4 0.00 0.00 0.00 68 1012.9
20260508043044 8 187 3.2 6.4 0.00 0.00 0.00 67 1012.9
20260508042044 8 197 3.2 6.4 0.00 0.00 0.00 66 1012.9
20260508041044 8 202 3.2 6.4 0.00 0.00 0.00 65 1012.9
20260508040044 9 204 4.8 8.0 0.00 0.00 0.00 64 1012.9
20260508035044 9 216 6.4 11.3 0.00 0.00 0.00 63 1013.2
20260508034044 9 206 4.8 8.0 0.00 0.00 0.00 64 1013.2
20260508033044 9 210 3.2 6.4 0.00 0.00 0.00 63 1013.6
20260508032044 10 205 3.2 6.4 0.00 0.00 0.00 63 1013.2
20260508031044 10 203 3.2 6.4 0.00 0.00 0.00 61 1013.2
20260508030044 10 216 4.8 6.4 0.00 0.00 0.00 61 1013.2
20260508025044 10 213 4.8 8.0 0.00 0.00 0.00 60 1013.2
20260508024044 10 228 4.8 9.7 0.00 0.00 0.00 59 1013.2
20260508023044 10 235 6.4 12.9 0.00 0.00 0.00 57 1013.2
20260508022044 11 218 8.0 14.5 0.00 0.00 0.00 52 1013.2
20260508021044 11 208 3.2 6.4 0.00 0.00 0.00 51 1013.2
20260508020044 11 205 3.2 6.4 0.00 0.00 0.00 50 1012.9
20260508015044 11 220 3.2 6.4 0.00 0.00 0.00 51 1012.6
20260508014044 11 242 6.4 14.5 0.00 0.00 0.00 51 1012.6
20260508013044 10 205 3.2 4.8 0.00 0.00 0.00 53 1012.6
20260508012044 10 180 0.0 0.0 0.00 0.00 0.00 56 1012.2
20260508011044 10 182 0.0 1.6 0.00 0.00 0.00 51 1012.2
20260508010044 10 186 0.0 1.6 0.00 0.00 0.00 46 1012.2
20260508005044 10 179 0.0 0.0 0.00 0.00 0.00 50 1012.2
20260508004044 11 184 0.0 0.0 0.00 0.00 0.00 47 1012.2
20260508003044 11 212 0.0 3.2 0.00 0.00 0.00 44 1012.2
20260508001044 12 246 4.8 9.7 0.00 0.00 0.00 39 1012.2
20260508000044 12 262 3.2 6.4 0.00 0.00 0.00 40 1012.2
20260507235044 12 253 6.4 11.3 0.00 0.00 0.00 38 1012.2
20260507234044 13 267 6.4 12.9 0.00 0.00 0.00 37 1012.6
20260507233044 13 257 6.4 11.3 0.00 0.00 0.00 38 1012.2
20260507232044 13 260 8.0 20.9 0.00 0.00 0.00 38 1012.6